Weather History for KISW - April, 2013

Change the Weather History Date:

Thursday, April 18, 2013

  Actual Average Record
Temperature  
Mean Temperature 38 °F -  
Max Temperature 41 °F - - ()
Min Temperature 35 °F - - ()
Degree Days  
Heating Degree Days 27    
Moisture  
Dew Point 36 °F    
Average Humidity 93    
Maximum Humidity 100    
Minimum Humidity 86    
Precipitation  
Precipitation 0.30 in - - ()
Sea Level Pressure  
Sea Level Pressure 29.52 in    
Wind  
Wind Speed 9 mph (ENE)    
Max Wind Speed 16 mph    
Max Gust Speed 23 mph    
Visibility 4 miles    
Events Rain    
T = Trace of Precipitation, MM = Missing Value Source: NWS Daily Summary

Daily Weather History Graph

Daily Weather History Graph

Search for Another Location

Airport or City:

Trip Planner

Search our weather history database for the weather conditions in past years. The results will help you decide how hot, cold, wet, or windy it might be!

Date:

Astronomy

Apr. 18, 2013 Rise Set
Actual Time 6:10 AM CDT 7:47 PM CDT
Civil Twilight 5:39 AM CDT 8:18 PM CDT
Nautical Twilight 5:02 AM CDT 8:55 PM CDT
Astronomical Twilight 4:22 AM CDT 9:35 PM CDT
Moon 12:19 PM CDT (4/18) 2:05 AM CDT (4/18)
Length of Visible Light 14h 39m
Length of Day
13h 37m
First Quarter, 52% of the Moon is Illuminated
Apr 18
First Quarter
Apr 25
Full
May 2
Last Quarter
May 9
New
May 17
First Quarter

Hourly Weather History & Observations

Time (CDT) Temp. Windchill Dew Point Humidity Pressure Visibility Wind Dir Wind Speed Gust Speed Precip Events Conditions
12:54 AM 37.0 °F 29.3 °F 35.1 °F 93% 29.88 in 9.0 mi East 11.5 mph 19.6 mph 0.03 in Rain Light Rain
1:54 AM 37.0 °F 28.5 °F 35.1 °F 93% 29.77 in 10.0 mi East 13.8 mph 23.0 mph 0.02 in   Overcast
2:54 AM 37.0 °F 30.4 °F 35.1 °F 93% 29.76 in 10.0 mi East 9.2 mph - N/A   Overcast
3:54 AM 37.0 °F 33.3 °F 36.0 °F 96% 29.79 in 5.0 mi Variable 4.6 mph - N/A   Overcast
4:15 AM 37.4 °F 31.4 °F 35.6 °F 93% 29.73 in 2.5 mi ENE 8.1 mph - N/A   Overcast
4:27 AM 37.4 °F 30.8 °F 35.6 °F 93% 29.72 in 1.2 mi ENE 9.2 mph - N/A   Overcast
4:40 AM 37.4 °F 31.4 °F 35.6 °F 93% 29.71 in 1.0 mi ENE 8.1 mph - N/A   Overcast
4:54 AM 37.0 °F 29.3 °F 35.1 °F 93% 29.71 in 0.8 mi ENE 11.5 mph 18.4 mph N/A   Overcast
5:28 AM 37.4 °F 30.8 °F 35.6 °F 93% 29.67 in 1.0 mi ENE 9.2 mph - N/A   Overcast
5:54 AM 37.0 °F 29.8 °F 35.1 °F 93% 29.69 in 1.0 mi ENE 10.4 mph - N/A   Overcast
6:19 AM 37.4 °F 32.8 °F 35.6 °F 93% 29.67 in 1.2 mi NE 5.8 mph - N/A   Overcast
6:54 AM 36.0 °F 31.1 °F 35.1 °F 97% 29.70 in 1.8 mi ENE 5.8 mph - N/A   Overcast
7:45 AM 35.6 °F 30.7 °F 35.6 °F 100% 29.67 in 1.5 mi NNE 5.8 mph - 0.07 in Rain Rain
7:54 AM 36.0 °F 31.1 °F 35.1 °F 97% 29.70 in 2.0 mi NNE 5.8 mph - 0.07 in Rain Light Rain
8:11 AM 35.6 °F 30.7 °F 35.6 °F 100% 29.67 in 3.0 mi North 5.8 mph - 0.01 in Rain Light Rain
8:22 AM 35.6 °F 30.7 °F 35.6 °F 100% 29.67 in 3.0 mi NE 5.8 mph - 0.01 in Rain Light Rain
8:30 AM 35.6 °F 31.7 °F 35.6 °F 100% 29.67 in 2.0 mi NE 4.6 mph - 0.02 in Rain Light Rain
8:38 AM 37.4 °F 32.8 °F 35.6 °F 93% 29.66 in 1.5 mi NE 5.8 mph - 0.03 in Rain Light Rain
8:45 AM 37.4 °F 32.8 °F 35.6 °F 93% 29.66 in 2.0 mi NE 5.8 mph - 0.03 in Rain Light Rain
8:52 AM 37.4 °F 32.8 °F 35.6 °F 93% 29.66 in 2.5 mi NNE 5.8 mph - 0.03 in Rain Light Rain
8:54 AM 37.0 °F 31.0 °F 35.1 °F 93% 29.69 in 2.5 mi NNE 8.1 mph - 0.03 in   Overcast
9:14 AM 37.4 °F 32.1 °F 35.6 °F 93% 29.65 in 1.8 mi North 6.9 mph - 0.01 in Rain Light Rain
9:22 AM 37.4 °F 32.1 °F 35.6 °F 93% 29.63 in 2.5 mi NE 6.9 mph - 0.01 in Rain Light Rain
9:30 AM 37.4 °F 32.1 °F 35.6 °F 93% 29.61 in 4.0 mi NE 6.9 mph - 0.01 in   Overcast
9:54 AM 37.0 °F 29.3 °F 35.1 °F 93% 29.59 in 10.0 mi ENE 11.5 mph - 0.01 in   Overcast
10:54 AM 39.0 °F 36.8 °F 36.0 °F 89% 29.62 in 10.0 mi Variable 3.5 mph - N/A   Overcast
11:54 AM 39.9 °F 37.8 °F 36.0 °F 86% 29.64 in 10.0 mi NNE 3.5 mph - N/A   Overcast
12:54 PM 39.9 °F 35.8 °F 36.0 °F 86% 29.60 in 10.0 mi NNE 5.8 mph - N/A   Overcast
1:54 PM 39.0 °F 31.8 °F 36.0 °F 89% 29.58 in 5.0 mi NNE 11.5 mph - N/A   Overcast
2:06 PM 39.2 °F 33.6 °F 35.6 °F 87% 29.55 in 1.8 mi NE 8.1 mph - N/A   Overcast
2:19 PM 39.2 °F 33.6 °F 35.6 °F 87% 29.53 in 2.5 mi NE 8.1 mph - N/A   Overcast
2:45 PM 39.2 °F 33.6 °F 37.4 °F 93% 29.51 in 3.0 mi ENE 8.1 mph - N/A   Overcast
2:54 PM 39.0 °F 31.8 °F 37.0 °F 93% 29.52 in 4.0 mi NE 11.5 mph 18.4 mph N/A   Overcast
3:28 PM 39.2 °F 32.0 °F 37.4 °F 93% 29.47 in 5.0 mi ENE 11.5 mph 19.6 mph N/A   Overcast
3:54 PM 39.9 °F 32.9 °F 37.0 °F 89% 29.48 in 7.0 mi ENE 11.5 mph 21.9 mph N/A   Overcast
4:17 PM 39.2 °F 31.6 °F 37.4 °F 93% 29.45 in 1.8 mi ENE 12.7 mph - N/A   Overcast
4:31 PM 39.2 °F 32.0 °F 37.4 °F 93% 29.44 in 2.5 mi East 11.5 mph 21.9 mph 0.00 in Rain Light Rain
4:50 PM 39.2 °F 32.0 °F 37.4 °F 93% 29.41 in 1.8 mi East 11.5 mph 19.6 mph 0.00 in   Overcast
4:54 PM 39.9 °F 32.9 °F 37.0 °F 89% 29.43 in 1.8 mi East 11.5 mph 19.6 mph 0.00 in   Overcast
5:01 PM 39.2 °F 32.5 °F 37.4 °F 93% 29.40 in 2.0 mi East 10.4 mph - N/A   Overcast
5:23 PM 39.2 °F 30.5 °F 37.4 °F 93% 29.38 in 1.8 mi East 16.1 mph 21.9 mph N/A   Overcast
5:50 PM 39.2 °F 31.2 °F 37.4 °F 93% 29.37 in 2.0 mi East 13.8 mph 21.9 mph 0.06 in Rain Light Rain
5:54 PM 39.9 °F 32.5 °F 37.9 °F 93% 29.39 in 2.0 mi East 12.7 mph 20.7 mph 0.06 in Rain Light Rain
6:07 PM 39.2 °F 30.8 °F 37.4 °F 93% 29.35 in 4.0 mi East 15.0 mph 23.0 mph 0.01 in Rain Light Rain
6:38 PM 39.2 °F 30.5 °F 39.2 °F 100% 29.32 in 2.5 mi East 16.1 mph 23.0 mph 0.01 in Rain Light Rain
6:46 PM 39.2 °F 31.6 °F 39.2 °F 100% 29.31 in 3.0 mi East 12.7 mph 23.0 mph 0.01 in Rain Light Rain
6:54 PM 39.9 °F 32.5 °F 39.0 °F 97% 29.33 in 3.0 mi East 12.7 mph - 0.01 in   Overcast
7:05 PM 39.2 °F 32.5 °F - N/A% 29.30 in 1.8 mi East 10.4 mph 21.9 mph 0.00 in Rain Light Rain
7:25 PM 39.2 °F 33.6 °F - N/A% 29.28 in 3.0 mi East 8.1 mph 18.4 mph 0.01 in Rain Light Rain
7:54 PM 39.9 °F 33.9 °F - N/A% 29.31 in 2.0 mi East 9.2 mph - 0.01 in Rain Light Rain
8:18 PM 39.2 °F 37.0 °F - N/A% 29.30 in 3.0 mi SSE 3.5 mph - 0.02 in Rain Light Rain
8:26 PM 41.0 °F - - N/A% 29.30 in 2.5 mi Calm Calm - 0.03 in Rain Light Rain
8:54 PM 39.9 °F - - N/A% 29.34 in 2.5 mi Calm Calm - 0.04 in Rain Light Rain
9:24 PM 39.2 °F - - N/A% 29.32 in 3.0 mi Calm Calm - 0.01 in   Overcast
9:52 PM 39.2 °F 34.2 °F - N/A% 29.31 in 5.0 mi SW 6.9 mph - 0.01 in   Haze
9:54 PM 39.0 °F 34.0 °F - N/A% 29.34 in 6.0 mi SSW 6.9 mph - 0.01 in   Haze
10:24 PM 39.2 °F 31.6 °F - N/A% 29.31 in 2.5 mi SW 12.7 mph 17.3 mph N/A   Overcast
10:35 PM 39.2 °F 30.8 °F - N/A% 29.30 in 3.0 mi SW 15.0 mph - N/A   Overcast
10:45 PM 39.2 °F 31.2 °F - N/A% 29.29 in 4.0 mi SW 13.8 mph - N/A   Haze
10:54 PM 39.0 °F 30.6 °F - N/A% 29.32 in 3.0 mi SW 15.0 mph 21.9 mph 0.00 in Rain Light Rain
11:04 PM 37.4 °F 28.9 °F - N/A% 29.29 in 3.0 mi WSW 13.8 mph - 0.00 in Rain Light Rain
11:54 PM 37.0 °F 28.1 °F 37.0 °F 100% 29.31 in 10.0 mi SW 15.0 mph 21.9 mph 0.01 in   Overcast